Location: Bonaustraße
(48.4603°N, 11.9280°E)
Time: 06:47:52
(UTC+01:00)

X-37B - Pass Details

Date: 27 January 2021
Orbit: 383 x 391 km, 45.0° (Epoch: 27 February)

Event Time Altitude Azimuth Distance (km) Brightness Sun altitude
Rises 18:07:09 0° 265° (W) 2,271 6.4 -10.7°
Reaches altitude 10° 18:09:17 10° 258° (WSW) 1,417 5.0 -11.0°
Maximum altitude 18:12:20 43° 185° (S) 559 1.5 -11.5°
Enters shadow 18:14:50 14° 116° (ESE) 1,207 2.6 -11.9°
